Location: Losili
(4.4086°N, 32.7049°E)
Time: 08:30:23
(UTC+00:00)

NOAA 11 - Pass Details

Date: 18 September 2019
Orbit: 832 x 850 km, 98.4° (Epoch: 17 October)

Event Time Altitude Azimuth Distance (km) Brightness Sun altitude
Rises 16:48:43 0° 155° (SSE) 3,407 7.1 -16.1°
Reaches altitude 10° 16:51:11 10° 149° (SSE) 2,472 6.3 -16.8°
Maximum altitude 16:56:25 46° 77° (ENE) 1,131 4.4 -18.1°
Drops below altitude 10° 17:01:37 10° 5° (N) 2,466 6.6 -19.4°
Sets 17:04:04 0° 359° (N) 3,399 7.4 -20.0°
